Weather History for Tacoma, WA

Change the Weather History Date:

Saturday, September 8, 2012

  Actual Average Record
Temperature  
Mean Temperature 64 °F -  
Max Temperature 77 °F 70 °F 86 °F (1993)
Min Temperature 50 °F 48 °F 39 °F (1961)
Degree Days  
Heating Degree Days 2    
Growing Degree Days 14 (Base 50)    
Moisture  
Dew Point 52 °F    
Average Humidity 69    
Maximum Humidity 87    
Minimum Humidity 47    
Precipitation  
Precipitation 0.00 in - - ()
Sea Level Pressure  
Sea Level Pressure 29.99 in    
Wind  
Wind Speed 5 mph (WSW)    
Max Wind Speed 12 mph    
Max Gust Speed -    
Visibility 10 miles    
Events Rain    
Averages and records for this station are not official NWS values.
T = Trace of Precipitation, MM = Missing Value Source: NWS Daily Summary

Daily Weather History Graph

Daily Weather History Graph

Search for Another Location

Airport:

Trip Planner

Search our weather history database for the weather conditions in past years. The results will help you decide how hot, cold, wet, or windy it might be!

Date:

Astronomy

Sep. 08, 2012 Rise Set
Actual Time 6:39 AM PDT 7:34 PM PDT
Civil Twilight 6:08 AM PDT 8:05 PM PDT
Nautical Twilight 5:30 AM PDT 8:42 PM PDT
Astronomical Twilight 4:51 AM PDT 9:21 PM PDT
Moon 11:56 PM PDT (9/8) 2:54 PM PDT (9/8)
Length of Visible Light 13h 57m
Length of Day
12h 55m
Waning Gibbous, 48% of the Moon is Illuminated
Sep 8
Waning Gibbous
Sep 15
New
Sep 22
First Quarter
Sep 29
Full
Oct 8
Last Quarter

Hourly Weather History & Observations

Time (PDT) Temp. Dew Point Humidity Pressure Visibility Wind Dir Wind Speed Gust Speed Precip Events Conditions
12:58 AM 54.5 °F 46.8 °F 75% 30.04 in 10.0 mi South 3.5 mph - N/A   Clear
1:58 AM 53.6 °F 48.4 °F 82% 30.04 in 10.0 mi South 4.6 mph - N/A   Clear
2:58 AM 52.9 °F 47.5 °F 82% 30.04 in 10.0 mi East 2.3 mph - N/A   Clear
3:58 AM 50.7 °F 46.2 °F 85% 30.03 in 10.0 mi Calm Calm - N/A   Clear
4:58 AM 51.8 °F 48.0 °F 87% 30.03 in 10.0 mi Calm Calm - N/A   Clear
5:58 AM 52.0 °F 48.0 °F 86% 30.02 in 10.0 mi South 4.6 mph - N/A   Clear
6:58 AM 50.4 °F 46.2 °F 86% 30.02 in 10.0 mi SE 1.2 mph - N/A   Clear
7:58 AM 55.2 °F 49.6 °F 81% 30.02 in 10.0 mi South 3.5 mph - N/A   Mostly Cloudy
8:58 AM 62.2 °F 51.4 °F 68% 30.02 in 10.0 mi WSW 3.5 mph - N/A   Mostly Cloudy
9:56 AM 64.4 °F 51.8 °F 64% 30.01 in 10.0 mi WSW 5.8 mph - N/A   Partly Cloudy
10:56 AM 68.0 °F 53.6 °F 60% 30.01 in 10.0 mi West 5.8 mph - N/A   Scattered Clouds
11:56 AM 71.6 °F 53.6 °F 53% 30.00 in 10.0 mi Variable 6.9 mph - N/A   Partly Cloudy
12:56 PM 73.4 °F 53.6 °F 50% 29.98 in 10.0 mi Variable 5.8 mph - N/A   Clear
1:56 PM 77.0 °F 55.4 °F 47% 29.97 in 10.0 mi WNW 9.2 mph - N/A   Scattered Clouds
2:56 PM 77.0 °F 57.2 °F 50% 29.96 in 10.0 mi West 9.2 mph - N/A   Clear
3:56 PM 77.0 °F 57.2 °F 50% 29.95 in 10.0 mi NW 11.5 mph - N/A   Clear
4:56 PM 71.6 °F 57.2 °F 60% 29.95 in 10.0 mi West 8.1 mph - N/A   Partly Cloudy
5:56 PM 69.8 °F 55.4 °F 60% 29.95 in 10.0 mi West 8.1 mph - N/A   Partly Cloudy
6:56 PM 66.2 °F 55.4 °F 68% 29.95 in 10.0 mi West 8.1 mph - N/A Rain Light Rain
7:16 PM 64.4 °F 55.4 °F 73% 29.95 in 10.0 mi Variable 6.9 mph - N/A   Partly Cloudy
7:56 PM 63.5 °F 54.9 °F 73% 29.97 in 10.0 mi West 9.2 mph - 0.00 in   Scattered Clouds
8:56 PM 62.6 °F 53.6 °F 72% 29.97 in 10.0 mi West 5.8 mph - N/A   Mostly Cloudy
9:56 PM 60.8 °F 51.8 °F 72% 29.98 in 10.0 mi WSW 5.8 mph - N/A   Mostly Cloudy
10:29 PM 60.8 °F 51.8 °F 72% 29.99 in 10.0 mi West 3.5 mph - N/A   Mostly Cloudy
10:56 PM 60.4 °F 51.4 °F 72% 30.01 in 10.0 mi SW 5.8 mph - N/A   Overcast
11:56 PM 59.0 °F 51.8 °F 77% 30.00 in 10.0 mi WSW 8.1 mph - N/A   Overcast